Weather History for KCKV - September, 2011

Change the Weather History Date:

Thursday, September 1, 2011

  Actual Average Record
Temperature  
Mean Temperature 83 °F -  
Max Temperature 98 °F - 98 °F (2011)
Min Temperature 68 °F - 43 °F (1954)
Degree Days  
Heating Degree Days 0    
Month to date heating degree days 0  
Since 1 July heating degree days 0  
Cooling Degree Days 18    
Month to date cooling degree days 18  
Growing Degree Days 34 (Base 50)    
Moisture  
Dew Point 67 °F    
Average Humidity 61    
Maximum Humidity 90    
Minimum Humidity 31    
Precipitation  
Precipitation 0.00 in - 1.25 in (1976)
Month to date precipitation 0.00  
Sea Level Pressure  
Sea Level Pressure 30.04 in    
Wind  
Wind Speed 3 mph (ESE)    
Max Wind Speed 9 mph    
Max Gust Speed 13 mph    
Visibility 8 miles    
Events      
T = Trace of Precipitation, MM = Missing Value Source: NWS Daily Summary

Daily Weather History Graph

Daily Weather History Graph

Search for Another Location

Airport or City:

Trip Planner

Search our weather history database for the weather conditions in past years. The results will help you decide how hot, cold, wet, or windy it might be!

Date:

Astronomy

Sep. 01, 2011 Rise Set
Actual Time 6:20 AM CDT 7:18 PM CDT
Civil Twilight 5:54 AM CDT 7:44 PM CDT
Nautical Twilight 5:22 AM CDT 8:15 PM CDT
Astronomical Twilight 4:50 AM CDT 8:48 PM CDT
Moon 10:30 AM CDT (9/1) 9:18 PM CDT (9/1)
Length of Visible Light 13h 50m
Length of Day
12h 57m
Waxing Crescent, 18% of the Moon is Illuminated
Sep 1
Waxing Crescent
Sep 4
First Quarter
Sep 12
Full
Sep 20
Last Quarter
Sep 27
New

Hourly Weather History & Observations

Time (CDT) Temp. Heat Index Dew Point Humidity Pressure Visibility Wind Dir Wind Speed Gust Speed Precip Events Conditions
1:52 AM 72.0 °F - 66.9 °F 84% 30.04 in 8.0 mi SE 3.5 mph - N/A   Clear
2:52 AM 72.0 °F - 66.9 °F 84% 30.05 in 7.0 mi Calm Calm - N/A   Clear
3:52 AM 71.1 °F - 66.0 °F 84% 30.05 in 6.0 mi Calm Calm - N/A   Haze
4:52 AM 70.0 °F - 66.0 °F 87% 30.06 in 6.0 mi Calm Calm - N/A   Clear
5:52 AM 69.1 °F - 64.9 °F 87% 30.07 in 6.0 mi Calm Calm - N/A   Clear
6:52 AM 69.1 °F - 66.0 °F 90% 30.09 in 4.0 mi ESE 3.5 mph - N/A   Clear
7:52 AM 73.9 °F - 68.0 °F 82% 30.10 in 5.0 mi SE 3.5 mph - N/A   Haze
8:52 AM 80.1 °F 82.9 °F 69.1 °F 69% 30.10 in 6.0 mi Variable 4.6 mph - N/A   Haze
9:52 AM 86.0 °F 91.5 °F 71.1 °F 61% 30.11 in 7.0 mi Variable 4.6 mph - N/A   Clear
10:52 AM 90.0 °F 96.4 °F 71.1 °F 54% 30.10 in 9.0 mi WSW 4.6 mph - N/A   Clear
11:52 AM 91.9 °F 97.4 °F 70.0 °F 48% 30.08 in 9.0 mi SSW 5.8 mph - N/A   Clear
12:52 PM 95.0 °F 97.0 °F 64.0 °F 36% 30.06 in 10.0 mi Variable 4.6 mph - N/A   Clear
1:52 PM 97.0 °F 99.9 °F 64.9 °F 35% 30.04 in 10.0 mi Variable 4.6 mph - N/A   Clear
2:52 PM 98.1 °F 101.2 °F 64.9 °F 34% 30.02 in 10.0 mi NNW 5.8 mph - N/A   Clear
3:52 PM 98.1 °F 99.6 °F 63.0 °F 31% 30.00 in 10.0 mi Calm Calm - N/A   Clear
4:52 PM 96.1 °F 98.8 °F 64.9 °F 36% 29.98 in 10.0 mi East 4.6 mph - N/A   Clear
5:52 PM 93.9 °F 97.0 °F 66.0 °F 40% 29.98 in 10.0 mi ESE 4.6 mph - N/A   Clear
6:52 PM 89.1 °F 91.3 °F 66.0 °F 46% 29.98 in 10.0 mi East 4.6 mph - N/A   Clear
7:52 PM 82.9 °F 85.0 °F 66.0 °F 56% 29.98 in 10.0 mi ENE 3.5 mph - N/A   Clear
8:52 PM 80.1 °F 82.1 °F 66.0 °F 62% 29.99 in 10.0 mi East 3.5 mph - N/A   Clear
9:52 PM 78.1 °F - 66.0 °F 66% 30.00 in 9.0 mi Calm Calm - N/A   Clear
10:52 PM 75.0 °F - 66.9 °F 76% 30.00 in 7.0 mi SE 3.5 mph - N/A   Clear
11:52 PM 75.9 °F - 68.0 °F 76% 30.00 in 9.0 mi Calm Calm - N/A   Clear